Location: Big Meadows
(38.5260°N, 78.4400°W)
Time: 07:01:47
(UTC-04:00)

Daily predictions for brighter satellites

Satellite Brightness Start Highest point End
(mag) Time Altitude Azimuth Time Altitude Azimuth Time Altitude Azimuth
PSLV R/B 3.6 20:53:22 10° WNW 20:56:27 55° N 20:59:32 10° E
USA 186 1.7 20:53:34 10° SSE 20:56:46 84° E 20:59:53 10° N
Cosmos 2369 Rocket 4.3 20:55:53 10° NW 21:00:26 25° WSW 21:05:00 10° SSW
Cosmos 1025 Rocket 4.3 21:00:30 10° SE 21:03:46 22° E 21:07:04 10° NE
Cosmos 1544 Rocket 4.0 20:59:40 10° NNW 21:03:58 63° W 21:08:13 10° S
Cosmos 1943 Rocket 3.2 20:58:55 10° NW 21:04:13 45° WSW 21:09:27 10° S
Cosmos 2074 Rocket 4.3 20:59:17 10° N 21:05:24 53° E 21:11:30 10° SSE
Spot 1 4.3 21:01:58 10° SSE 21:06:23 54° ENE 21:10:34 10° N
Aureole 1 Rocket 2.5 21:05:11 10° S 21:08:25 44° ESE 21:11:19 10° NNE
Cosmos 2184 Rocket 4.2 21:02:27 10° N 21:08:41 54° E 21:14:47 10° SSE
Cosmos 405 Rocket 2.6 21:11:14 10° S 21:14:58 85° E 21:18:49 10° N
DEBRIS 3.5 21:14:45 10° WSW 21:17:46 80° NNW 21:26:59 10° NE
Meteor 1-19 Rocket 4.3 21:13:37 10° S 21:19:26 82° E 21:25:11 10° N
Cosmos 923 Rocket 4.4 21:16:02 10° SSW 21:21:19 69° WNW 21:26:37 10° NNE
Cosmos 1441 Rocket 3.3 21:20:11 10° S 21:23:50 52° E 21:27:28 10° NNE
Tiangong 2 1.6 21:20:48 10° W 21:23:57 60° NNW 21:27:06 10° ENE
ERS-1 Rocket 3.6 21:21:27 12° SE 21:25:46 40° ENE 21:30:28 10° N
Resurs 01 Rocket 3.5 21:23:20 10° SSW 21:27:12 29° W 21:31:05 10° NW
Cosmos 1455 Rocket 4.5 21:24:47 10° NNW 21:28:49 38° W 21:32:50 10° SSW
CENTAUR R/B 3.4 21:21:12 10° NW 21:29:12 74° WSW 21:37:36 10° SSE
SPOT 5 4.1 21:30:14 14° ESE 21:32:44 22° ENE 21:36:03 10° NNE
Meteor 1-29 3.1 21:31:56 10° N 21:35:18 73° WNW 21:38:39 10° SSW
Nadezhda 1 Rocket 4.0 21:29:47 10° S 21:36:06 74° E 21:42:30 10° N
MOS 1-B Rocket 4.5 21:35:57 15° SE 21:40:25 46° ENE 21:46:30 10° N
COSMOS 2406 4.1 21:36:09 10° SW 21:41:45 53° WNW 21:47:20 10° NNE
Meteor 1-15 Rocket 4.5 21:37:49 10° N 21:43:17 52° ENE 21:47:17 18° SSE
Cosmos 2082 Rocket 3.3 21:41:51 17° SE 21:44:27 24° E 21:48:52 10° NE
ASTRO E2 4.4 21:45:55 10° WSW 21:48:44 18° SSW 21:49:55 16° S
Cosmos 1743 4.2 21:46:39 10° NNW 21:50:15 36° W 21:53:50 10° SSW
CZ-4B DEB 3.9 21:48:37 11° SSW 21:51:17 37° W 21:54:06 10° NNW
Cosmos 2154 Rocket 4.1 21:46:30 10° N 21:52:50 65° E 21:57:43 18° SSE
CRYOSAT 2 4.3 21:48:52 13° S 21:53:10 83° E 21:58:02 10° N
Cosmos 1238 Rocket 4.2 21:48:43 10° S 21:55:28 83° W 22:02:01 10° N
Aureole 3 Rocket 4.5 21:51:18 10° SSW 21:57:31 50° W 22:02:01 10° N
ISS -1.6 21:55:42 10° W 21:58:36 28° NNW 22:01:32 10° NNE
ASTEX 1 3.5 21:55:06 12° S 21:59:39 78° W 22:04:34 10° N
H-2A R/B 3.0 21:59:49 21° ESE 22:02:01 30° ENE 22:06:23 10° N
OAO 2 Rocket 3.4 21:57:45 10° W 22:02:34 55° S 22:05:08 26° ESE
Cosmos 1624 Rocket 4.1 21:57:19 10° NNW 22:02:35 66° ENE 22:05:37 26° SE
Cosmos 2369 4.3 22:00:20 10° N 22:05:49 44° ENE 22:08:44 25° ESE
Cosmos 1697 Rocket 4.2 22:02:03 10° N 22:06:27 23° NE 22:09:13 16° E
Cosmos 967 Rocket 4.4 22:01:02 10° SSW 22:07:16 81° ESE 22:13:34 10° NNE
Cosmos 2228 3.9 22:04:31 10° NNE 22:08:23 32° ENE 22:09:27 28° ESE
YAOGAN 6 3.6 22:06:35 16° SSW 22:09:03 40° W 22:12:23 10° NNW
Cosmos 921 Rocket 3.5 22:06:41 10° N 22:11:01 46° ENE 22:12:34 32° ESE
Cosmos 1666 4.5 22:09:35 10° NNW 22:12:49 28° W 22:16:03 10° SSW
SL-08 RB Rocket 4.0 22:12:26 32° SE 22:14:08 50° ENE 22:18:28 10° N
Cosmos 1656 4.5 22:09:16 10° N 22:14:16 36° ENE 22:16:38 25° ESE
Meteor 1-4 Rocket 4.3 22:11:55 10° NNE 22:14:27 18° ENE 22:14:27 18° ENE
Cosmos 1892 Rocket 3.5 22:15:22 26° S 22:17:47 75° E 22:22:12 10° N
Intercosmos 24 4.2 22:17:33 10° NNW 22:21:12 53° W 22:22:54 26° SSW
Cosmos 1833 Rocket 2.9 22:19:03 28° SSE 22:21:36 46° ESE 22:26:57 10° NE
Cosmos 2056 Rocket 3.4 22:16:42 10° NNW 22:21:53 89° WSW 22:24:17 32° SSE
NOSS 8 (E) 4.4 22:19:52 10° SSW 22:23:19 86° WNW 22:26:59 10° NNE
Cosmos 1437 Rocket 2.9 22:19:55 10° NNW 22:23:45 67° W 22:25:17 34° SSW
CZ-3B Rocket 4.4 22:19:34 10° SSW 22:39:10 - ESE 22:21:32 16° S
Cosmos 2341 Rocket 4.0 22:19:15 10° N 22:25:39 85° E 22:29:28 26° S
MetOp-A 4.3 22:23:25 24° S 22:26:40 71° WSW 22:32:02 10° NNW
Cosmos 1606 Rocket 3.8 22:27:08 10° NNW 22:31:25 65° W 22:33:15 32° SSW
PSLV R/B 3.8 22:30:29 10° W 22:32:59 44° WSW 22:32:59 44° WSW
Cosmos 839 Rocket 4.4 22:29:01 10° NNW 22:35:43 85° ENE 22:39:48 32° SSE
Cosmos 1066 Rocket 4.2 22:34:16 36° SSE 22:36:23 62° E 22:41:55 10° NNE
Cosmos 2218 Rocket 4.2 22:31:06 10° N 22:37:07 53° E 22:39:18 36° SE
Cosmos 1726 Rocket 3.8 22:36:53 10° NNW 22:41:09 61° W 22:42:37 37° SSW
USA 245 3.8 22:42:20 35° NW 22:42:20 35° NW 22:43:58 10° NNW
COSMOS 2487 3.0 22:43:44 39° SW 22:44:47 57° WNW 22:48:19 10° N
CZ-3A R/B 2.6 22:46:25 10° WSW 22:48:50 21° NW 22:48:50 21° NW
CARTOSAT-1 4.0 22:50:14 44° E 22:50:29 44° ENE 22:54:36 10° N
Landsat 7 3.8 22:52:27 57° SE 22:53:19 73° ENE 22:58:04 10° N
SPOT 1/Viking Rocket 3.6 22:51:40 43° S 22:53:22 75° WSW 22:58:33 10° NNW
Cosmos 1452 Rocket 3.5 22:48:37 10° NNW 22:53:54 72° ENE 22:55:04 53° SE
Cosmos 2181 Rocket 4.4 22:49:25 18° SSW 22:54:18 63° W 23:00:33 10° N
Cosmos 1980 Rocket 3.2 22:49:48 10° N 22:54:54 33° ENE 22:56:23 29° E
Cosmos 2058 Rocket 3.5 22:51:24 10° NNW 22:55:45 58° W 22:56:51 44° SW
Cosmos 1766 4.2 22:56:33 10° N 22:59:35 36° NE 22:59:35 36° NE
ARGOS 3.9 22:58:32 28° SSW 23:00:57 45° W 23:06:09 10° NNW
Tiangong 2 2.6 22:58:02 10° WNW 23:00:58 35° N 23:00:58 35° N
Cosmos 2322 Rocket 4.3 23:01:34 10° NNE 23:04:57 16° NE 23:07:11 13° ENE
Lacrosse 5 rocket 4.4 23:03:48 10° N 23:05:13 11° NNE 23:06:38 10° NE
USA 267 4.0 23:01:13 10° ENE 23:05:41 31° ESE 23:05:41 31° ESE
Terra 1.7 23:07:56 67° ESE 23:08:21 72° ENE 23:13:06 10° N
SPOT 5 4.0 23:09:29 26° SW 23:10:38 30° W 23:14:28 10° NW
H-2A R/B 2.0 23:15:12 82° E 23:15:17 82° ENE 23:19:50 10° N
IGS 5A 3.5 23:18:14 76° N 23:18:14 76° N 23:22:06 10° NNW
Cosmos 1812 Rocket 3.7 23:14:20 10° N 23:18:32 67° NE 23:18:32 67° NE
Cosmos 864 Rocket 4.4 23:12:42 10° N 23:19:02 85° W 23:20:41 52° S
Meteor 2-21 4.5 23:17:19 10° NNW 23:23:20 73° W 23:24:52 51° SSW
Lacrosse 5 4.3 23:30:33 10° ENE 23:30:33 10° ENE 23:30:37 10° ENE
Cosmos 1626 Rocket 4.0 23:26:20 51° W 23:26:36 52° W 23:30:50 10° N
Spot 4 4.1 23:26:55 57° ENE 23:26:55 57° ENE 23:31:32 10° N
Meteor 2-21 Rocket 4.3 23:21:20 10° N 23:27:25 84° W 23:28:37 59° S
Cosmos 2082 Rocket 3.2 23:23:35 14° SW 23:28:12 44° WNW 23:33:37 10° N
ATLAS CENTAUR R/B 3.8 23:29:23 10° NNE 23:30:26 11° NE 23:30:40 11° NE
CZ-2C R/B 4.4 23:27:24 10° NE 23:30:19 19° ENE 23:30:19 19° ENE
Cosmos 1805 4.5 23:28:17 10° N 23:30:53 36° NNE 23:30:53 36° NNE
SL-19 R/B 4.2 23:26:58 10° N 23:32:17 73° WNW 23:33:15 57° SW
Meteor 1-22 Rocket 4.2 23:28:43 10° NNW 23:33:59 65° W 23:34:39 59° SW
USA 229 DEB 3.9 23:29:58 10° NNW 23:37:07 68° NE 23:39:05 49° ESE
USA 229 3.9 23:30:05 10° NNW 23:37:13 67° NE 23:39:12 49° ESE
Cosmos 1825 Rocket 4.4 23:41:26 44° NE 23:41:26 44° NE 23:44:32 10° NNE
H-2A R/B 3.4 23:40:27 26° WSW 23:41:23 27° W 23:45:39 10° NW
Cosmos 2366 rocket 4.5 23:36:03 10° NNW 23:41:59 51° W 23:43:33 41° SW
Cosmos 158 Rocket 4.3 23:46:05 56° WSW 23:46:52 64° WNW 23:52:13 10° NNE
Cosmos 1697 Rocket 3.1 23:45:17 10° NNW 23:50:41 49° WSW 23:50:56 49° WSW
Cosmos 2360 4.1 23:45:54 10° NNW 23:51:38 80° ENE 23:51:48 79° E
